Regional Weather Roundup
Issued by NWS Cleveland, OH

Home | Current Version | Previous Version | Text Only | Print | Product List | Glossary Off
Versions: 1 2 3 4 5 6 7 8 9 10 11 12 13 14 15 16 17 18 19 20 21 22 23 24 25 26 27 28 29 30 31 32 33 34 35 36 37 38 39 40 41 42 43 44 45 46 47 48 49 50

000
ASUS41 KCLE 302210
RWRCLE
OHIO REGIONAL WEATHER ROUNDUP
NATIONAL WEATHER SERVICE CLEVELAND, OH
600 PM EDT WED JUL 30 2014

NOTE: "FAIR" INDICATES FEW OR NO CLOUDS BELOW 12,000 FEET WITH NO
SIGNIFICANT WEATHER AND/OR OBSTRUCTIONS TO VISIBILITY.

OHZ001>008-015>018-024>027-034-035-043-044-302300-
   NORTHWEST OHIO

CITY           SKY/WX    TMP DP  RH WIND       PRES   REMARKS
DEFIANCE       MOSUNNY   77  54  44 VRB5      29.98F
FINDLAY        SUNNY     78  56  46 W12       29.98F
TOLEDO EXPRESS MOSUNNY   75  56  51 NW7       29.97S
TOLEDO EXEC    SUNNY     75  58  55 CALM      29.97F
LIMA           SUNNY     75  56  51 W10       30.00F
$$

OHZ009>014-019>023-028>033-038-089-302300-
   NORTHEAST OHIO

CITY           SKY/WX    TMP DP  RH WIND       PRES   REMARKS
CLE-HOPKINS    PTSUNNY   70  59  68 N8        30.01S
CLE-LAKEFRONT  MOSUNNY   72  58  61 CALM      29.98F
CUY CO. ARPT   PTSUNNY   77  59  53 W9        30.00F
LORAIN-ELYRIA  MOSUNNY   76  58  53 NW5       29.99F
ASHTABULA      MOSUNNY   71  56  58 NW8       30.00S
AKRON-CANTON   PTSUNNY   69  54  58 S16       30.02R
WOOSTER        PTSUNNY   65  57  75 S13       30.02S
MANSFIELD      PTSUNNY   74  57  55 VRB7      30.01S
YOUNGSTOWN     LGT RAIN  66  62  87 SW3       30.02R
$$

OHZ042-051>053-060>062-070>072-077>081-302300-
  SOUTHWEST OHIO

CITY           SKY/WX    TMP DP  RH WIND       PRES   REMARKS
CINC-COVINGTON PTSUNNY   78  59  51 W10       30.04S
CINC-LUNKEN    CLOUDY    77  60  55 W12       30.03S
HAMILTON       PTSUNNY   71  63  75 VRB5      30.05R
DAYTON         PTSUNNY   77  56  48 NW9       30.03S
WRIGHT-PAT AFB MOSUNNY   76  59  54 W6        30.02S
DAYTON GENERAL PTSUNNY   73  61  65 VRB7      30.03S
WILMINGTON     TSTM      65  58  78 N10G20    30.05R
$$

OHZ036-037-039>041-045>050-054>059-063>069-073>076-082>088-302300-
  CENTRAL AND SOUTHEAST OHIO

CITY           SKY/WX    TMP DP  RH WIND       PRES   REMARKS
COLUMBUS       MOSUNNY   74  59  59 S8        30.01F
OSU AIRPORT    PTSUNNY   73  61  65 SW9       30.01F
BOLTON FIELD   MOSUNNY   70  64  83 SW9       30.03
RICKENBACK AFB LGT RAIN  71  57  61 SW8       30.02S
NEWARK         PTSUNNY   71  58  63 VRB3      30.02F
MARION         PTSUNNY   75  55  49 NW8       30.01S
LANCASTER      MOSUNNY   71  61  70 VRB7      30.04S
ZANESVILLE     CLOUDY    66  60  81 CALM      30.03F
NEW PHILLY     TSTM      62  60  93 S3        30.05R FOG
$$



USA.gov is the U.S. government's official web portal to all federal, state and local government web resources and services.